User: anonymous   Login
Location: Mentone
(34.5413°N, 85.5351°W)
Time: 00:35:19
(UTC-05:00)
Language:

Centaur AC-72 - Orbit

View from above orbital plane
View from above orbital plane
View from above satellite
View from above satellite

Ground track
Ground track

The orbit data is extracted from the following two-line orbital elements,

1 21907U 92013B   17179.56900656 -.00000189 +00000-0 +00000-0 0  9995
2 21907 019.3235 266.2482 6951832 157.6138 264.8618 02.25610884208471
Epoch (UTC): 28 June 2017 13:39:22
Eccentricity: 0.6951832
inclination: 19.3235°
perigee height: 1107 km
apogee height: 35249 km
right ascension of ascending node: 266.2482°
argument of perigee: 157.6138°
revolutions per day: 2.25610884
mean anomaly at epoch: 264.8618°
orbit number at epoch: 20847

The dashed part of the orbit path shows where the satellite is in the earth's shadow,  

DLR